sat.trackr.live / text

‹ back to catalog

UNKNOWN

NORAD 85004

UNKNOWN UNKNOWN UNKNOWN

§ Identity

Operator
Country
Launch date
Launch site
Launch vehicle
Mass (kg)
RCS (m²)

External: N2YO · Heavens-Above

§ Orbital elements

Epoch: 2026-09-17T21:14:54.524256Z

Period
99.88 min
Inclination
98.4546°
Eccentricity
0.0047672
Mean motion
14.41672751 rev/d
Perigee alt
719.0 km
Apogee alt
787.0 km
Semi-major
7,131.1 km
B*
2.2569e-4
RAAN
233.5154°
Arg perigee
44.1725°
Mean anomaly
345.7600°
Rev number
67,111

§ Raw data

UNKNOWN1 85004U          26260.88535329  .00000701  00000+0  22569-3 0  99902 85004  98.4546 233.5154 0047672  44.1725 345.7600 14.41672751671116

JSON: /api/v1/satellites/85004 · /tle

For live sub-satellite position, see the globe view (requires WebGL).

§ Visibility from observer

Set your observer location to see the next 7 days of passes ≥ 10°. The values pass through the URL so the page stays shareable.

No JS? Fill the form by hand. The geolocation button needs JavaScript.